AEHF-5 (USA 292)

Last updated on Sun Jun 21 2026 00:03:08 GMT+0000 (Coordinated Universal Time)

1 44481U 19051A 26171.05407052 -.00000264 00000+0 00000+0 0 9998 2 44481 1.4512 336.4772 0066222 359.9102 44.4246 1.00273066 25292
UTC large
Height (km)
Speed (km/s)
/
Latitude / Longitude
Inclination (degrees)
Orbital Period (minutes)
Azimuth
Elevation
Range (km)
Doppler Factor

Next 0 passes for location: London (51.5072 / 0.1276)

No passes found over London.
AEHF-5 (USA 292)